QPF
0.03 0.24 0.27 0.17 0.11 0.09 0.08 0.05 0.05 0.03 0.01 0.01 0.00 0.00 0.00 0.00 0.00 0.00 0.00 0.00 0.00 0.00 0.01 0.00 0.00 0.00 0.00 0.00 0.01 0.00 0.00 0.01 0.00 0.00 0.00 0.00 0.00 0.00 0.00 0.00 0.00 0.00 0.00
0.02 0.04 0.13 0.12 0.13 0.14 0.15 0.18 0.16 0.07 0.05 0.03 0.01 0.00 0.00 0.00 0.00 0.00 0.00 0.00 0.00 0.00 0.01 0.01 0.00 0.00 0.00 0.00 0.00 0.00 0.00 0.00 0.00 0.00 0.00 0.00 0.00 0.00 0.00 0.00 0.00 0.00 0.00
0.02 0.01 0.02 0.02 0.06 0.11 0.15 0.15 0.10 0.09 0.09 0.09 0.11 0.10 0.05 0.02 0.00 0.00 0.01 0.01 0.02 0.01 0.00 0.01 0.00 0.00 0.00 0.00 0.00 0.00 0.00 0.00 0.00 0.00 0.00 0.00 0.00 0.00 0.00 0.00 0.00 0.00 0.00
0.01 0.00 0.00 0.01 0.01 0.01 0.01 0.02 0.02 0.04 0.05 0.08 0.13 0.12 0.10 0.10 0.08 0.05 0.02 0.01 0.01 0.01 0.01 0.02 0.03 0.02 0.00 0.00 0.00 0.00 0.00 0.00 0.00 0.00 0.00 0.00 0.00 0.00 0.00 0.00 0.00 0.00 0.00
0.00 0.00 0.00 0.00 0.00 0.00 0.00 0.00 0.00 0.00 0.00 0.01 0.01 0.05 0.07 0.09 0.10 0.15 0.16 0.10 0.06 0.03 0.02 0.02 0.04 0.09 0.06 0.03 0.00 0.00 0.00 0.00 0.00 0.00 0.00 0.00 0.00 0.00 0.00 0.00 0.00 0.00 0.00
0.00 0.00 0.00 0.00 0.00 0.00 0.00 0.00 0.00 0.00 0.00 0.00 0.00 0.01 0.02 0.03 0.06 0.06 0.09 0.11 0.11 0.10 0.04 0.04 0.03 0.03 0.06 0.08 0.05 0.02 0.00 0.00 0.00 0.00 0.00 0.00 0.00 0.00 0.00 0.00 0.00 0.00 0.00
0.00 0.00 0.00 0.00 0.00 0.00 0.00 0.00 0.00 0.00 0.00 0.00 0.00 0.00 0.00 0.01 0.02 0.02 0.05 0.05 0.07 0.09 0.09 0.05 0.02 0.01 0.02 0.04 0.07 0.07 0.04 0.01 0.00 0.00 0.00 0.00 0.00 0.00 0.00 0.00 0.00 0.00 0.00
0.00 0.00 0.00 0.00 0.00 0.00 0.00 0.00 0.00 0.00 0.00 0.00 0.00 0.00 0.00 0.00 0.00 0.00 0.01 0.01 0.02 0.03 0.04 0.04 0.01 0.04 0.04 0.02 0.02 0.04 0.05 0.06 0.00 0.00 0.00 0.00 0.00 0.00 0.00 0.00 0.00 0.00 0.00
0.00 0.00 0.00 0.00 0.00 0.00 0.00 0.00 0.00 0.00 0.00 0.00 0.00 0.00 0.00 0.00 0.00 0.00 0.00 0.00 0.00 0.00 0.00 0.00 0.00 0.00 0.01 0.03 0.00 0.01 0.01 0.05 0.04 0.00 0.00 0.00 0.00 0.00 0.00 0.00 0.00 0.00 0.00
0.00 0.00 0.00 0.00 0.00 0.00 0.00 0.00 0.00 0.00 0.00 0.00 0.00 0.00 0.00 0.00 0.00 0.00 0.00 0.00 0.00 0.00 0.00 0.00 0.00 0.00 0.00 0.00 0.00 0.00 0.01 0.03 0.10 0.00 0.01 0.02 0.02 0.01 0.00 0.00 0.00 0.00 0.00
0.00 0.00 0.00 0.00 0.00 0.00 0.00 0.00 0.00 0.00 0.00 0.00 0.00 0.00 0.00 0.00 0.00 0.00 0.00 0.00 0.00 0.00 0.00 0.00 0.00 0.00 0.00 0.00 0.00 0.00 0.00 0.03 0.06 0.03 0.16 0.11 0.11 0.06 0.02 0.02 0.00 0.03 0.03
0.00 0.00 0.00 0.00 0.00 0.00 0.00 0.00 0.00 0.00 0.00 0.00 0.00 0.00 0.00 0.00 0.00 0.00 0.00 0.00 0.00 0.00 0.00 0.00 0.00 0.00 0.00 0.00 0.00 0.00 0.00 0.01 0.00 0.04 0.11 0.14 0.18 0.16 0.07 0.02 0.01 0.02 0.02
0.00 0.00 0.00 0.00 0.00 0.00 0.00 0.00 0.00 0.00 0.00 0.00 0.00 0.00 0.00 0.00 0.00 0.00 0.00 0.00 0.00 0.00 0.00 0.00 0.00 0.00 0.00 0.00 0.00 0.00 0.00 0.00 0.00 0.00 0.03 0.08 0.08 0.03 0.08 0.04 0.01 0.01 0.02
0.00 0.00 0.00 0.00 0.00 0.00 0.00 0.00 0.00 0.00 0.00 0.00 0.00 0.00 0.00 0.00 0.00 0.00 0.00 0.00 0.00 0.00 0.00 0.00 0.00 0.00 0.00 0.00 0.00 0.00 0.00 0.00 0.00 0.00 0.00 0.01 0.04 0.07 0.07 0.04 0.05 0.03 0.02
0.00 0.00 0.00 0.00 0.00 0.00 0.00 0.00 0.00 0.00 0.00 0.00 0.00 0.00 0.00 0.00 0.00 0.00 0.00 0.00 0.00 0.00 0.00 0.00 0.00 0.00 0.00 0.00 0.00 0.00 0.00 0.00 0.00 0.00 0.00 0.00 0.00 0.00 0.01 0.05 0.09 0.10 0.08
0.00 0.00 0.00 0.00 0.00 0.00 0.00 0.00 0.00 0.00 0.00 0.00 0.00 0.00 0.00 0.00 0.00 0.00 0.00 0.00 0.00 0.00 0.00 0.00 0.00 0.00 0.00 0.00 0.00 0.00 0.00 0.00 0.00 0.00 0.00 0.00 0.00 0.00 0.00 0.00 0.04 0.08 0.06
0.00 0.00 0.00 0.00 0.00 0.00 0.00 0.00 0.00 0.00 0.00 0.00 0.00 0.00 0.00 0.00 0.00 0.00 0.00 0.00 0.00 0.00 0.00 0.00 0.00 0.00 0.00 0.00 0.00 0.00 0.00 0.00 0.00 0.00 0.00 0.00 0.00 0.00 0.00 0.00 0.00 0.02 0.06
0.00 0.00 0.00 0.00 0.00 0.00 0.00 0.00 0.00 0.00 0.00 0.00 0.00 0.00 0.00 0.00 0.00 0.00 0.00 0.00 0.00 0.00 0.00 0.00 0.00 0.00 0.00 0.00 0.00 0.00 0.00 0.00 0.00 0.00 0.00 0.00 0.00 0.00 0.00 0.00 0.00 0.00 0.01
0.00 0.00 0.00 0.00 0.00 0.00 0.00 0.00 0.00 0.00 0.00 0.00 0.00 0.00 0.00 0.00 0.00 0.00 0.00 0.00 0.00 0.00 0.00 0.00 0.00 0.00 0.00 0.00 0.00 0.00 0.00 0.00 0.00 0.00 0.00 0.00 0.00 0.00 0.00 0.00 0.00 0.00 0.00
0.00 0.00 0.00 0.00 0.00 0.00 0.00 0.00 0.00 0.00 0.00 0.00 0.00 0.00 0.00 0.00 0.00 0.00 0.00 0.00 0.00 0.00 0.00 0.00 0.00 0.00 0.00 0.00 0.00 0.00 0.00 0.00 0.00 0.00 0.00 0.00 0.00 0.00 0.00 0.00 0.00 0.00 0.00
0.00 0.00 0.00 0.00 0.00 0.00 0.00 0.00 0.00 0.00 0.00 0.00 0.00 0.00 0.00 0.00 0.00 0.00 0.00 0.00 0.00 0.00 0.00 0.00 0.00 0.00 0.00 0.00 0.00 0.00 0.00 0.00 0.00 0.00 0.00 0.00 0.00 0.00 0.00 0.00 0.00 0.00 0.00
0.00 0.00 0.00 0.00 0.00 0.00 0.00 0.00 0.00 0.00 0.00 0.00 0.00 0.00 0.00 0.00 0.00 0.00 0.00 0.00 0.00 0.00 0.00 0.00 0.00 0.00 0.00 0.00 0.00 0.00 0.00 0.00 0.00 0.00 0.00 0.00 0.00 0.00 0.00 0.00 0.00 0.00 0.00
0.00 0.00 0.00 0.00 0.00 0.00 0.00 0.00 0.00 0.00 0.00 0.00 0.00 0.00 0.00 0.00 0.00 0.00 0.00 0.00 0.00 0.00 0.00 0.00 0.00 0.00 0.00 0.00 0.00 0.00 0.00 0.00 0.00 0.00 0.00 0.00 0.00 0.00 0.00 0.00 0.00 0.00 0.00
0.00 0.00 0.00 0.00 0.00 0.00 0.00 0.00 0.00 0.00 0.00 0.00 0.00 0.00 0.00 0.00 0.00 0.00 0.00 0.00 0.00 0.00 0.00 0.00 0.00 0.00 0.00 0.00 0.00 0.00 0.00 0.00 0.00 0.00 0.00 0.00 0.00 0.00 0.00 0.00 0.00 0.00 0.00
0.00 0.00 0.00 0.00 0.00 0.00 0.00 0.00 0.01 0.01 0.01 0.01 0.01 0.00 0.00 0.00 0.00 0.00 0.00 0.00 0.00 0.00 0.00 0.00 0.00 0.00 0.00 0.00 0.00 0.00 0.00 0.00 0.00 0.00 0.00 0.00 0.00 0.00 0.00 0.00 0.00 0.00 0.00
0.00 0.00 0.00 0.00 0.00 0.00 0.00 0.01 0.01 0.01 0.01 0.01 0.01 0.01 0.00 0.00 0.00 0.00 0.00 0.00 0.00 0.00 0.00 0.00 0.00 0.00 0.00 0.00 0.00 0.00 0.00 0.00 0.00 0.00 0.00 0.00 0.00 0.00 0.00 0.00 0.00 0.00 0.00
MSLP
1018.79 1017.70 1016.61 1016.01 1015.52 1015.26 1015.10 1014.93 1014.92 1014.82 1014.71 1014.66 1014.52 1014.40 1014.37 1014.31 1014.23 1014.07 1014.01 1014.01 1013.99 1013.96 1014.01 1013.95 1013.96 1013.92 1013.94 1013.94 1013.96 1014.07 1014.22 1014.26 1014.30 1014.43 1014.48 1014.47 1014.46 1014.52 1014.56 1014.69 1014.63 1014.60 1014.71
1020.16 1018.30 1017.29 1016.64 1016.22 1015.96 1015.80 1015.55 1015.28 1015.21 1015.06 1014.83 1014.70 1014.55 1014.46 1014.37 1014.30 1014.22 1014.12 1013.99 1014.01 1013.95 1014.00 1014.04 1014.01 1014.01 1013.97 1013.98 1014.01 1014.11 1014.28 1014.38 1014.40 1014.52 1014.55 1014.55 1014.54 1014.58 1014.68 1014.76 1014.56 1014.68 1014.89
1020.00 1018.85 1018.05 1017.38 1016.97 1016.67 1016.46 1016.16 1016.02 1015.74 1015.54 1015.27 1014.98 1014.71 1014.47 1014.38 1014.18 1014.10 1014.05 1014.06 1014.04 1013.96 1013.88 1014.02 1013.98 1013.94 1013.99 1014.00 1014.08 1014.11 1014.19 1014.31 1014.42 1014.43 1014.47 1014.61 1014.57 1014.43 1014.67 1014.85 1014.82 1014.95 1015.07
1020.14 1019.47 1018.86 1018.29 1017.86 1017.52 1017.19 1016.93 1016.72 1016.42 1016.17 1015.87 1015.54 1015.23 1014.81 1014.49 1014.27 1014.12 1014.05 1013.95 1013.91 1013.89 1013.95 1013.95 1013.97 1013.98 1013.92 1013.97 1014.02 1014.11 1014.16 1014.20 1014.30 1014.29 1014.16 1014.06 1014.26 1014.33 1014.44 1014.76 1014.95 1014.97 1015.14
1020.34 1019.78 1019.29 1018.92 1018.60 1018.31 1018.00 1017.69 1017.37 1017.13 1016.84 1016.54 1016.19 1015.85 1015.38 1015.13 1014.77 1014.47 1014.18 1014.01 1013.90 1013.99 1013.91 1013.98 1013.99 1013.90 1013.86 1014.06 1013.92 1013.99 1014.06 1014.05 1014.12 1014.17 1013.88 1013.70 1013.62 1014.11 1014.35 1014.56 1014.79 1014.94 1015.01
1020.78 1020.38 1019.81 1019.32 1018.94 1018.77 1018.46 1018.14 1017.78 1017.54 1017.30 1017.07 1016.75 1016.33 1015.89 1015.58 1015.24 1014.97 1014.84 1014.42 1014.22 1014.13 1014.01 1013.93 1013.81 1013.74 1013.73 1013.78 1013.87 1013.87 1013.86 1013.92 1013.94 1014.00 1013.74 1013.59 1013.41 1013.90 1014.29 1014.49 1014.67 1014.77 1014.90
1020.84 1020.51 1020.28 1019.76 1019.42 1018.97 1018.76 1018.59 1018.29 1017.97 1017.69 1017.36 1017.09 1016.84 1016.45 1016.05 1015.74 1015.43 1015.21 1015.11 1014.83 1014.62 1014.34 1014.22 1013.92 1013.81 1013.58 1013.61 1013.64 1013.62 1013.68 1013.64 1013.73 1013.70 1013.42 1013.42 1013.22 1013.50 1013.99 1014.36 1014.61 1014.73 1014.74
1020.79 1020.49 1020.31 1019.97 1019.65 1019.38 1018.93 1018.79 1018.57 1018.24 1017.91 1017.63 1017.34 1016.96 1016.61 1016.17 1015.87 1015.68 1015.58 1015.44 1015.15 1015.01 1014.87 1014.60 1014.34 1014.04 1013.82 1013.71 1013.64 1013.37 1013.37 1013.37 1013.33 1013.36 1013.05 1013.07 1012.81 1012.90 1013.48 1013.95 1014.37 1014.62 1014.70
1020.82 1020.68 1020.54 1020.27 1020.10 1019.76 1019.24 1018.82 1018.60 1018.30 1017.99 1017.62 1017.37 1017.07 1016.68 1016.27 1015.88 1015.61 1015.50 1015.46 1015.27 1015.15 1014.94 1014.72 1014.35 1014.10 1013.75 1013.60 1013.46 1013.43 1013.30 1012.95 1012.92 1013.02 1012.66 1012.44 1012.40 1012.52 1012.91 1013.35 1013.89 1014.21 1014.49
1021.12 1020.97 1020.76 1020.66 1020.39 1020.09 1019.53 1018.96 1018.62 1018.38 1017.97 1017.57 1017.29 1017.04 1016.78 1016.26 1015.82 1015.48 1015.42 1015.50 1015.28 1015.10 1014.94 1014.72 1014.47 1014.14 1013.74 1013.48 1013.33 1013.12 1013.10 1012.97 1012.72 1012.54 1012.45 1012.18 1012.14 1012.25 1012.47 1012.85 1013.31 1013.79 1014.04
1021.54 1021.26 1021.00 1020.90 1020.64 1020.36 1019.72 1019.08 1018.73 1018.28 1017.83 1017.44 1017.18 1016.79 1016.52 1016.40 1015.97 1015.51 1015.32 1015.22 1015.09 1014.87 1014.70 1014.48 1014.29 1014.07 1013.76 1013.34 1013.15 1013.06 1012.91 1012.57 1012.30 1012.26 1012.24 1011.94 1012.40 1012.33 1012.36 1012.59 1012.88 1013.39 1013.80
1021.92 1021.47 1021.20 1021.00 1020.65 1020.33 1019.85 1019.51 1019.13 1018.44 1017.90 1017.35 1016.93 1016.66 1016.36 1016.11 1015.96 1015.47 1015.09 1014.82 1014.66 1014.51 1014.34 1014.08 1013.90 1013.73 1013.61 1013.62 1013.47 1013.05 1012.74 1012.46 1012.21 1012.02 1011.96 1011.68 1011.84 1012.36 1012.47 1012.49 1012.71 1012.92 1013.34
1022.06 1021.90 1021.61 1021.22 1020.93 1020.63 1020.21 1019.73 1019.33 1018.76 1018.30 1017.91 1017.19 1016.50 1016.08 1015.79 1015.74 1015.61 1015.13 1014.79 1014.64 1014.44 1014.38 1014.18 1014.04 1013.86 1013.75 1013.63 1013.42 1013.06 1012.64 1012.31 1012.20 1012.07 1011.74 1011.56 1011.46 1011.74 1012.20 1012.38 1012.40 1012.60 1013.04
1022.38 1022.02 1021.68 1021.42 1020.89 1020.67 1020.19 1019.92 1019.50 1018.91 1018.42 1017.99 1017.49 1017.08 1016.43 1015.75 1015.34 1015.24 1015.16 1014.90 1014.65 1014.38 1014.33 1014.11 1014.11 1013.85 1013.70 1013.57 1013.35 1012.95 1012.60 1012.36 1012.07 1011.88 1011.95 1011.79 1011.59 1011.69 1011.86 1011.94 1012.06 1012.33 1012.49
1022.56 1022.07 1021.62 1021.10 1020.78 1020.41 1020.03 1019.82 1019.16 1018.65 1018.27 1017.92 1017.40 1016.81 1016.44 1015.80 1015.40 1014.74 1014.51 1014.52 1014.34 1014.04 1013.96 1013.96 1013.83 1013.88 1013.85 1013.58 1013.29 1013.09 1012.80 1012.52 1012.16 1011.99 1011.82 1011.84 1011.75 1011.56 1011.57 1011.52 1011.40 1011.78 1012.09
1022.33 1021.81 1021.28 1020.81 1020.31 1019.97 1019.65 1019.13 1018.79 1018.34 1017.93 1017.52 1017.09 1016.58 1016.05 1015.52 1014.98 1014.46 1014.20 1014.05 1013.90 1013.79 1013.64 1013.65 1013.74 1013.82 1013.92 1013.69 1013.40 1013.02 1012.83 1012.63 1012.41 1012.06 1011.87 1011.75 1011.63 1011.45 1011.40 1011.27 1011.24 1011.19 1011.51
1022.07 1021.46 1020.88 1020.20 1019.83 1019.51 1019.11 1018.77 1018.37 1018.02 1017.43 1017.22 1016.38 1015.92 1015.50 1014.94 1014.51 1014.09 1013.79 1013.63 1013.65 1013.63 1013.47 1013.38 1013.36 1013.43 1013.69 1013.55 1013.38 1013.19 1012.85 1012.42 1012.22 1012.10 1011.91 1011.67 1011.54 1011.37 1011.33 1011.30 1011.08 1010.99 1010.93
1021.98 1021.32 1020.63 1020.04 1019.51 1019.07 1018.64 1018.18 1017.79 1017.39 1016.96 1016.35 1015.69 1015.30 1014.88 1014.54 1014.04 1013.67 1013.37 1013.12 1012.96 1013.07 1013.30 1013.28 1013.23 1013.39 1013.43 1013.51 1013.34 1013.11 1012.84 1012.55 1012.20 1011.96 1011.76 1011.57 1011.48 1011.42 1011.38 1011.16 1011.06 1010.81 1010.52
1021.72 1021.00 1020.47 1019.87 1019.38 1018.89 1018.28 1017.80 1017.20 1016.58 1016.23 1015.64 1015.10 1014.61 1014.19 1013.99 1013.77 1013.52 1012.89 1012.42 1012.36 1012.80 1012.80 1012.82 1012.97 1013.10 1013.25 1013.12 1013.11 1012.76 1012.61 1012.39 1012.21 1011.99 1012.03 1011.77 1011.55 1011.47 1011.24 1010.91 1010.72 1010.63 1010.56
1021.66 1021.12 1020.41 1019.88 1019.34 1018.60 1017.92 1017.23 1016.60 1016.04 1015.53 1015.13 1014.80 1014.59 1014.19 1013.70 1013.34 1013.03 1012.57 1012.06 1011.75 1012.03 1012.17 1012.26 1012.46 1012.41 1012.74 1012.89 1012.61 1012.42 1012.41 1012.23 1012.15 1011.95 1012.06 1011.77 1011.48 1011.16 1011.05 1010.95 1010.63 1010.34 1010.14
1021.65 1020.88 1020.41 1019.55 1018.92 1018.34 1017.57 1016.91 1016.34 1015.72 1015.21 1014.65 1014.12 1013.71 1013.27 1013.19 1012.80 1012.60 1012.31 1012.03 1011.61 1011.44 1011.57 1011.68 1011.81 1012.09 1012.15 1012.10 1012.30 1012.22 1012.23 1011.95 1011.97 1011.71 1011.67 1011.49 1011.09 1010.76 1010.62 1010.49 1010.35 1010.01 1009.75
1021.50 1020.84 1020.06 1019.52 1018.60 1017.86 1017.17 1016.50 1015.94 1015.28 1014.62 1013.93 1013.33 1012.84 1012.56 1012.21 1012.02 1011.72 1011.60 1011.39 1011.26 1011.17 1010.98 1011.06 1011.21 1011.38 1011.57 1011.66 1012.00 1012.22 1012.31 1012.32 1011.71 1011.34 1011.05 1011.02 1010.78 1010.60 1010.39 1010.18 1010.09 1009.88 1009.59
1021.14 1020.46 1019.70 1018.97 1018.43 1017.50 1017.03 1016.15 1015.77 1015.46 1014.57 1013.90 1013.05 1012.18 1011.65 1011.30 1011.08 1010.79 1010.77 1010.78 1010.78 1010.73 1010.61 1010.46 1010.45 1010.74 1011.13 1011.06 1011.09 1011.64 1011.98 1012.00 1011.94 1011.29 1010.95 1010.81 1010.45 1010.39 1010.14 1010.04 1009.78 1009.56 1009.14
1021.01 1020.10 1019.73 1018.96 1018.15 1017.48 1016.90 1016.60 1016.17 1015.37 1014.39 1013.59 1013.03 1011.94 1010.94 1010.36 1010.09 1009.93 1009.98 1009.90 1009.83 1009.88 1009.95 1009.97 1009.86 1009.95 1010.26 1010.47 1010.64 1010.70 1011.01 1011.53 1011.70 1011.74 1011.00 1010.46 1010.09 1010.23 1010.14 1009.89 1009.61 1009.28 1008.82
1021.00 1020.82 1019.75 1019.30 1018.25 1017.47 1016.66 1016.21 1015.46 1014.65 1013.91 1012.94 1012.20 1011.46 1010.64 1009.80 1009.28 1008.96 1008.90 1009.02 1009.06 1009.08 1009.10 1009.18 1009.26 1009.27 1009.32 1009.76 1009.95 1010.33 1010.52 1010.69 1010.95 1011.38 1011.22 1010.62 1010.24 1009.97 1009.59 1009.52 1009.29 1009.17 1008.81
1021.59 1020.73 1020.10 1019.07 1018.08 1017.19 1016.31 1015.55 1014.86 1013.96 1013.01 1012.19 1011.46 1010.70 1010.01 1009.39 1008.61 1008.14 1008.02 1008.05 1008.04 1008.06 1008.18 1008.39 1008.55 1008.66 1008.68 1008.86 1009.00 1009.23 1009.80 1010.25 1010.48 1010.75 1010.91 1010.72 1010.39 1009.89 1009.49 1009.12 1008.82 1008.83 1008.64
Thickness
5704 5709 5714 5719 5721 5722 5723 5722 5721 5721 5721 5720 5721 5721 5721 5721 5720 5721 5722 5722 5723 5724 5723 5725 5725 5726 5727 5729 5730 5730 5730 5731 5732 5732 5733 5734 5735 5737 5738 5739 5740 5742 5743
5687 5699 5705 5708 5712 5712 5712 5713 5713 5712 5713 5714 5714 5714 5713 5714 5714 5714 5715 5717 5717 5718 5718 5718 5719 5720 5722 5723 5724 5724 5723 5723 5725 5725 5727 5729 5730 5731 5732 5734 5737 5738 5738
5685 5692 5695 5698 5700 5702 5702 5703 5702 5703 5703 5704 5704 5705 5707 5708 5709 5710 5710 5710 5710 5710 5712 5711 5713 5715 5715 5717 5717 5718 5718 5718 5718 5720 5721 5723 5725 5727 5727 5728 5730 5731 5732
5679 5681 5684 5686 5688 5689 5690 5691 5691 5692 5693 5693 5696 5695 5698 5699 5702 5702 5702 5703 5703 5704 5704 5705 5705 5706 5709 5710 5711 5712 5712 5713 5713 5714 5718 5720 5720 5723 5724 5723 5724 5726 5727
5673 5675 5676 5676 5676 5676 5677 5678 5680 5680 5681 5681 5683 5684 5688 5688 5690 5692 5694 5695 5695 5695 5697 5697 5697 5699 5701 5701 5705 5706 5707 5708 5709 5710 5715 5718 5722 5718 5719 5720 5720 5722 5725
5663 5664 5665 5666 5667 5666 5667 5667 5669 5669 5670 5670 5671 5674 5675 5677 5680 5681 5681 5684 5686 5687 5686 5688 5690 5693 5695 5695 5697 5698 5701 5702 5704 5706 5710 5714 5719 5715 5714 5715 5716 5718 5721
5658 5657 5655 5655 5655 5657 5656 5656 5656 5656 5657 5658 5659 5660 5662 5664 5666 5669 5670 5671 5673 5674 5678 5679 5680 5683 5688 5689 5691 5692 5694 5697 5699 5702 5707 5710 5715 5714 5711 5711 5711 5713 5717
5650 5649 5647 5646 5644 5643 5644 5643 5643 5644 5645 5645 5646 5648 5650 5652 5655 5656 5656 5658 5661 5662 5663 5667 5671 5675 5676 5680 5682 5687 5688 5691 5695 5698 5703 5706 5711 5713 5710 5708 5707 5708 5711
5638 5635 5633 5632 5629 5629 5629 5631 5629 5629 5630 5632 5633 5633 5636 5639 5642 5644 5645 5646 5649 5650 5652 5655 5660 5664 5670 5673 5674 5677 5681 5687 5692 5693 5698 5703 5707 5709 5708 5708 5705 5706 5706
5626 5623 5620 5615 5613 5612 5613 5616 5613 5613 5614 5616 5617 5618 5619 5624 5628 5632 5634 5633 5635 5638 5641 5644 5647 5652 5657 5663 5666 5669 5673 5678 5684 5688 5693 5699 5703 5704 5705 5705 5704 5702 5703
5609 5606 5603 5598 5595 5591 5593 5594 5596 5596 5598 5599 5600 5603 5604 5605 5610 5615 5617 5620 5623 5626 5629 5633 5636 5640 5645 5651 5655 5660 5663 5671 5678 5682 5686 5692 5691 5694 5697 5699 5700 5698 5699
5591 5588 5585 5580 5578 5574 5571 5571 5571 5573 5577 5580 5581 5583 5586 5589 5590 5595 5601 5605 5607 5612 5616 5621 5625 5628 5632 5635 5639 5647 5654 5661 5668 5674 5679 5685 5687 5686 5687 5691 5693 5695 5695
5575 5568 5563 5559 5555 5552 5549 5548 5547 5548 5550 5550 5557 5562 5565 5570 5571 5573 5580 5586 5590 5594 5599 5604 5609 5614 5619 5623 5627 5633 5643 5651 5656 5662 5671 5676 5680 5683 5680 5682 5686 5688 5688
5555 5549 5543 5536 5533 5528 5525 5522 5521 5522 5523 5523 5526 5530 5537 5545 5551 5552 5557 5562 5567 5575 5579 5585 5591 5597 5603 5609 5613 5620 5629 5636 5646 5651 5656 5662 5668 5671 5672 5676 5680 5681 5683
5535 5528 5521 5515 5509 5504 5500 5496 5496 5497 5497 5498 5501 5504 5505 5514 5523 5532 5536 5540 5546 5554 5561 5565 5572 5578 5584 5590 5597 5604 5610 5620 5629 5638 5645 5647 5651 5659 5662 5669 5675 5674 5676
5510 5501 5495 5489 5484 5479 5475 5471 5468 5467 5467 5470 5473 5475 5481 5486 5493 5501 5512 5518 5523 5531 5539 5544 5551 5558 5561 5569 5578 5587 5595 5601 5610 5620 5629 5637 5641 5647 5651 5657 5662 5666 5669
5485 5479 5474 5471 5465 5460 5455 5451 5448 5445 5445 5446 5451 5453 5457 5462 5467 5472 5480 5491 5502 5506 5513 5522 5530 5538 5542 5550 5558 5566 5576 5585 5593 5602 5611 5622 5631 5637 5641 5644 5651 5655 5658
5470 5466 5463 5458 5454 5450 5444 5440 5435 5433 5431 5432 5434 5437 5437 5439 5443 5447 5453 5462 5474 5481 5487 5494 5505 5513 5520 5527 5535 5545 5555 5566 5576 5585 5596 5607 5616 5623 5628 5634 5639 5647 5655
5466 5464 5459 5454 5448 5443 5439 5434 5431 5428 5423 5423 5423 5424 5427 5426 5427 5428 5434 5443 5447 5453 5461 5470 5480 5489 5498 5507 5514 5525 5534 5544 5555 5566 5574 5583 5596 5605 5615 5623 5630 5637 5645
5460 5456 5452 5446 5440 5437 5434 5430 5427 5423 5419 5415 5411 5408 5408 5413 5414 5415 5421 5428 5432 5431 5434 5445 5453 5463 5470 5480 5491 5504 5511 5524 5534 5545 5552 5563 5575 5587 5597 5607 5616 5626 5635
5457 5453 5445 5442 5437 5430 5428 5425 5421 5418 5415 5410 5407 5404 5403 5402 5405 5405 5408 5412 5417 5419 5419 5420 5429 5437 5445 5458 5463 5478 5490 5500 5510 5525 5535 5545 5557 5570 5582 5592 5603 5613 5622
5452 5446 5439 5434 5431 5428 5423 5418 5413 5411 5410 5408 5405 5402 5399 5398 5398 5398 5399 5402 5405 5406 5409 5410 5409 5412 5419 5430 5436 5445 5457 5471 5490 5505 5514 5524 5538 5553 5564 5574 5583 5597 5609
5449 5442 5437 5432 5425 5423 5416 5413 5407 5400 5401 5398 5399 5399 5398 5395 5393 5393 5392 5393 5394 5395 5398 5400 5401 5398 5399 5407 5415 5421 5430 5444 5460 5475 5488 5502 5520 5531 5543 5555 5568 5580 5594
5445 5442 5434 5429 5424 5419 5413 5404 5395 5392 5392 5391 5389 5392 5395 5394 5392 5390 5389 5390 5390 5389 5389 5391 5394 5392 5390 5393 5396 5405 5413 5423 5433 5444 5461 5480 5496 5509 5522 5534 5547 5561 5577
5442 5432 5430 5423 5421 5417 5413 5405 5400 5395 5391 5391 5388 5387 5388 5390 5390 5390 5388 5385 5384 5384 5384 5384 5385 5386 5386 5385 5387 5388 5393 5401 5411 5418 5434 5450 5465 5483 5502 5515 5526 5541 5559
5435 5430 5423 5422 5421 5417 5414 5410 5404 5399 5397 5393 5389 5387 5384 5383 5385 5386 5384 5382 5381 5381 5381 5379 5379 5378 5380 5381 5382 5384 5384 5385 5391 5396 5406 5421 5437 5456 5475 5493 5508 5521 5538